Flag for Germany Weather past 2 weeks in Schwäbisch Hall, Baden-Württemberg, Germany

Now
60 °F

Overcast.


Feels Like: 59 °F
Forecast: 47 / 59 °F
Wind: 7 mph from West

Location: Oehringen

Current Time: Sep 5, 2015 at 4:19:47 PM

Latest Report: Sep 5, 2015 at 3:00 PM


Visibility: 25 mi

Pressure: 30.04 "Hg

Humidity: 60%

Dew point: 46 °F

Location of Schwäbisch HallLocation

Historic Weather in Schwäbisch Hall — Graph

°F

Schwäbisch Hall temperature yesterday

Maximum temperature yesterday: 67 °F (at 4:00 PM)
Minimum temperature yesterday: 48 °F (at 7:00 AM)
Average temperature yesterday: 58 °F

Past Weeks' High & Low Weather Summary

 TemperatureHumidityPressure
High93 °F (Aug 31, 6:00 PM)96% (Aug 28, 7:00 AM)30.21 "Hg (Aug 28, 7:00 AM)
Low45 °F (Sep 5, 7:00 AM)27% (Aug 22, 2:00 PM)29.68 "Hg (Aug 24, 3:00 PM)
Average68 °F64%29.98 "Hg
* Reported Aug 21 3:00 PM — Sep 5 3:00 PM, Schwäbisch Hall, Weather by CustomWeather, © 2015

Note: Actual official high and low records may vary slightly from our data, if they occured in-between our weather recording intervals... More about our weather records

Advertising

Schwäbisch Hall weather history for previous 24 hours

 ConditionsComfort  
Time TempWeatherWind HumidityBarometerVisibility
3:00 PM
Sat, Sep 5
60 °FOvercast.7 mph60%30.04 "Hg25 mi
2:00 PM61 °FOvercast.6 mph57%30.03 "Hg34 mi
1:00 PM59 °FOvercast.7 mph61%30.04 "Hg25 mi
12:00 PM58 °FOvercast.6 mph62%30.04 "Hg22 mi
11:00 AM57 °FOvercast.6 mph65%30.04 "Hg31 mi
10:00 AM55 °FPassing clouds.5 mph70%30.05 "Hg19 mi
9:00 AM51 °FSunny.3 mph78%30.05 "Hg19 mi
8:00 AM47 °FSunny.1 mph83%30.05 "Hg16 mi
7:00 AM45 °FSunny.2 mph87%30.05 "Hg17 mi
6:00 AM47 °FClear.2 mph86%30.02 "Hg22 mi
5:00 AM47 °FClear.2 mph84%30.01 "Hg28 mi
4:00 AM46 °FClear.1 mph88%30.02 "Hg19 mi
3:00 AM48 °FClear.1 mph82%30.03 "Hg28 mi
2:00 AM48 °FClear.1 mph83%30.03 "Hg22 mi
1:00 AM50 °FPassing clouds.2 mph80%30.03 "Hg25 mi
11:00 PM
Fri, Sep 4
53 °FPassing clouds.1 mph73%30.01 "Hg25 mi
10:00 PM54 °FPassing clouds.2 mph70%30.01 "Hg25 mi
9:00 PM58 °FClear.1 mph57%29.99 "Hg28 mi
8:00 PM61 °FPassing clouds.2 mph46%29.98 "Hg25 mi
7:00 PM64 °FPassing clouds.5 mph40%29.97 "Hg28 mi
6:00 PM67 °FOvercast.5 mph38%29.96 "Hg34 mi
5:00 PM65 °FOvercast.6 mph39%29.97 "Hg37 mi
4:00 PM67 °FPassing clouds.7 mph36%29.98 "Hg19 mi
Weather by CustomWeather, © 2015

See weather overviewHow to use our weather pages